2022/06/18 23:31:31+0000,-35.96,-45.44,-31.34,-42.25,-51.58,-53.39
2022/06/18 23:32:23+0000,-35.20,-45.54,-32.66,-43.23,-51.76,-53.27
2022/06/18 23:33:16+0000,-35.13,-45.37,-32.18,-41.42,-51.42,-53.45
2022/06/18 23:34:08+0000,-36.15,-45.19,-32.15,-42.82,-51.62,-53.14
2022/06/18 23:35:00+0000,-35.61,-45.94,-32.33,-43.22,-51.35,-53.05
2022/06/18 23:35:52+0000,-36.31,-46.45,-32.12,-42.71,-51.46,-53.53
2022/06/18 23:36:44+0000,-35.96,-47.54,-32.67,-41.40,-51.75,-53.23
2022/06/18 23:37:36+0000,-35.55,-45.90,-32.21,-43.34,-51.49,-53.52
2022/06/18 23:38:28+0000,-36.22,-46.50,-32.78,-41.33,-51.83,-53.06
2022/06/18 23:39:20+0000,-36.20,-47.80,-32.80,-42.50,-51.81,-53.76
2022/06/18 23:40:12+0000,-35.22,-45.78,-31.99,-43.51,-51.90,-53.53
2022/06/18 23:41:10+0000,-35.02,-47.37,-31.89,-43.83,-51.98,-53.59
2022/06/18 23:42:02+0000,-36.24,-46.78,-31.97,-42.92,-51.63,-52.94
2022/06/18 23:42:54+0000,-35.45,-47.41,-32.22,-42.50,-51.88,-53.33
2022/06/18 23:43:46+0000,-35.88,-43.61,-32.05,-44.36,-51.30,-53.07
2022/06/18 23:44:38+0000,-35.91,-43.80,-32.35,-43.04,-51.62,-53.46
2022/06/18 23:45:30+0000,-35.22,-44.33,-32.98,-41.67,-51.88,-53.14
2022/06/18 23:46:22+0000,-35.95,-44.19,-32.11,-41.44,-51.30,-53.16
2022/06/18 23:47:14+0000,-35.16,-42.43,-32.45,-40.46,-51.46,-52.82
2022/06/18 23:48:06+0000,-35.32,-42.56,-32.33,-40.72,-51.05,-53.21
2022/06/18 23:48:59+0000,-35.69,-43.75,-32.86,-41.70,-51.90,-53.53
2022/06/18 23:49:51+0000,-35.62,-42.57,-32.94,-42.31,-51.16,-53.42
2022/06/18 23:50:43+0000,-35.74,-43.36,-32.39,-40.51,-51.60,-52.96
2022/06/18 23:51:41+0000,-35.89,-43.18,-32.16,-40.10,-52.35,-52.98
2022/06/18 23:52:33+0000,-35.35,-45.86,-32.87,-41.91,-51.51,-52.99
2022/06/18 23:53:25+0000,-34.46,-44.42,-33.23,-42.01,-51.63,-52.55
2022/06/18 23:54:17+0000,-35.97,-44.22,-32.06,-42.44,-51.86,-52.68
2022/06/18 23:55:10+0000,-36.27,-44.95,-32.18,-41.36,-51.84,-52.92
2022/06/18 23:56:02+0000,-35.60,-46.11,-32.11,-43.58,-51.13,-53.07
2022/06/18 23:56:54+0000,-35.89,-44.65,-33.01,-41.25,-52.01,-52.62
2022/06/18 23:57:46+0000,-36.45,-44.53,-32.97,-41.20,-51.82,-53.07
2022/06/18 23:58:38+0000,-35.56,-44.22,-32.69,-41.62,-52.33,-53.15
2022/06/18 23:59:30+0000,-36.06,-43.54,-32.78,-41.31,-52.23,-53.24
2022/06/19 00:00:22+0000,-35.17,-44.68,-32.23,-42.76,-51.96,-53.07
2022/06/19 00:01:24+0000,-35.65,-43.84,-32.23,-41.46,-52.50,-52.71
2022/06/19 00:02:16+0000,-36.34,-43.06,-32.35,-42.25,-51.92,-53.36
2022/06/19 00:03:08+0000,-34.75,-44.45,-32.58,-42.25,-52.02,-53.38
2022/06/19 00:04:00+0000,-35.32,-44.33,-33.56,-42.76,-52.41,-53.26
2022/06/19 00:04:52+0000,-35.48,-45.31,-32.58,-42.37,-52.61,-53.17
2022/06/19 00:05:44+0000,-36.11,-44.31,-32.39,-43.76,-52.75,-53.46
2022/06/19 00:06:36+0000,-36.36,-44.80,-32.10,-43.55,-51.85,-53.19
2022/06/19 00:07:28+0000,-35.78,-44.20,-32.38,-44.22,-52.24,-53.36
2022/06/19 00:08:20+0000,-35.68,-42.28,-33.59,-43.13,-52.26,-52.83
2022/06/19 00:09:12+0000,-36.20,-41.66,-33.24,-41.80,-51.35,-53.27
2022/06/19 00:10:04+0000,-35.98,-44.61,-32.97,-42.72,-51.36,-52.63
2022/06/19 00:11:03+0000,-35.47,-44.50,-33.09,-41.84,-52.81,-52.32
2022/06/19 00:11:55+0000,-35.75,-42.52,-32.80,-42.10,-52.28,-52.17
2022/06/19 00:12:47+0000,-35.39,-43.42,-33.30,-40.85,-51.17,-52.68
2022/06/19 00:13:39+0000,-36.10,-44.22,-32.79,-41.04,-52.03,-52.94
2022/06/19 00:14:31+0000,-34.89,-43.73,-32.62,-41.54,-52.18,-53.42
2022/06/19 00:15:23+0000,-35.01,-42.29,-32.63,-42.46,-52.16,-53.47
2022/06/19 00:16:15+0000,-35.90,-44.74,-32.73,-43.60,-52.04,-53.54
2022/06/19 00:17:07+0000,-36.09,-44.43,-32.37,-40.92,-52.19,-53.34
2022/06/19 00:17:59+0000,-36.46,-46.19,-32.54,-41.96,-52.42,-53.21
2022/06/19 00:18:51+0000,-36.61,-45.85,-32.84,-41.86,-52.05,-53.32
2022/06/19 00:19:43+0000,-35.94,-45.77,-32.15,-43.06,-52.19,-53.33
2022/06/19 00:20:35+0000,-35.86,-46.21,-32.12,-41.72,-52.66,-53.11
2022/06/19 00:21:37+0000,-35.22,-46.08,-32.65,-42.39,-52.70,-53.64
2022/06/19 00:22:29+0000,-35.68,-46.19,-31.86,-41.51,-52.62,-53.50
2022/06/19 00:23:21+0000,-35.51,-45.56,-32.16,-42.28,-52.61,-53.03
2022/06/19 00:24:13+0000,-35.48,-44.91,-31.75,-43.81,-52.60,-52.89
2022/06/19 00:25:05+0000,-35.83,-45.58,-32.46,-42.44,-52.71,-53.50
2022/06/19 00:25:57+0000,-35.85,-45.75,-31.67,-44.25,-53.03,-53.42
2022/06/19 00:26:49+0000,-35.53,-45.05,-32.62,-41.05,-52.09,-53.21
2022/06/19 00:27:41+0000,-36.11,-45.10,-32.58,-41.46,-53.32,-53.45
2022/06/19 00:28:33+0000,-36.29,-43.09,-32.52,-42.67,-51.65,-53.14
2022/06/19 00:29:25+0000,-36.26,-43.59,-32.29,-42.86,-52.01,-53.08
2022/06/19 00:30:17+0000,-35.52,-46.68,-32.17,-42.83,-52.09,-53.62
2022/06/19 00:31:17+0000,-35.80,-45.03,-32.59,-41.87,-52.83,-53.90
2022/06/19 00:32:09+0000,-35.09,-44.78,-32.00,-41.71,-52.21,-53.31
2022/06/19 00:33:01+0000,-36.06,-45.95,-32.65,-41.93,-52.40,-53.12
2022/06/19 00:33:53+0000,-34.62,-43.72,-31.97,-41.78,-52.71,-53.73
2022/06/19 00:34:45+0000,-35.93,-44.78,-32.95,-42.87,-52.12,-53.26
2022/06/19 00:35:37+0000,-36.21,-44.48,-32.13,-43.11,-52.74,-53.73
2022/06/19 00:36:29+0000,-35.87,-43.28,-31.82,-41.14,-52.01,-52.87
2022/06/19 00:37:21+0000,-36.29,-43.41,-32.31,-42.68,-52.85,-53.44
2022/06/19 00:38:13+0000,-35.42,-44.21,-32.56,-42.20,-52.02,-53.22
2022/06/19 00:39:05+0000,-35.39,-43.28,-32.30,-42.28,-52.12,-54.07
2022/06/19 00:39:58+0000,-35.28,-42.42,-32.42,-42.45,-52.67,-52.98
2022/06/19 00:40:50+0000,-35.81,-43.04,-32.54,-42.78,-52.53,-52.91
2022/06/19 00:41:48+0000,-35.56,-43.27,-32.91,-41.99,-51.74,-53.05
2022/06/19 00:42:40+0000,-34.62,-44.11,-33.04,-42.27,-52.77,-53.71
2022/06/19 00:43:33+0000,-36.30,-43.81,-32.63,-43.28,-52.26,-53.18
2022/06/19 00:44:25+0000,-36.64,-43.46,-32.57,-42.26,-52.60,-53.03
2022/06/19 00:45:17+0000,-35.80,-43.95,-32.16,-42.06,-51.83,-52.79
2022/06/19 00:46:09+0000,-35.11,-43.63,-32.75,-42.39,-52.74,-53.06
2022/06/19 00:47:01+0000,-36.50,-42.98,-33.29,-41.27,-52.01,-53.34
2022/06/19 00:47:53+0000,-36.16,-43.87,-32.85,-40.64,-51.93,-53.34
2022/06/19 00:48:45+0000,-35.60,-44.37,-32.01,-41.70,-52.18,-53.70
2022/06/19 00:49:37+0000,-35.52,-44.15,-32.91,-42.85,-52.43,-53.44
2022/06/19 00:50:29+0000,-35.49,-42.95,-32.19,-42.10,-52.17,-53.24
2022/06/19 00:51:34+0000,-35.95,-43.03,-32.67,-42.51,-52.18,-53.10
2022/06/19 00:52:26+0000,-36.27,-42.87,-32.69,-41.58,-52.60,-53.53
2022/06/19 00:53:18+0000,-36.02,-42.30,-32.84,-41.53,-52.24,-53.73
2022/06/19 00:54:10+0000,-35.53,-42.81,-32.65,-42.38,-52.52,-53.16
2022/06/19 00:55:02+0000,-36.10,-43.04,-32.47,-43.04,-52.50,-53.56
2022/06/19 00:55:54+0000,-35.60,-42.90,-32.59,-42.75,-51.96,-52.96
2022/06/19 00:56:46+0000,-36.50,-43.04,-32.05,-40.61,-52.80,-53.55
2022/06/19 00:57:38+0000,-35.58,-44.21,-31.91,-42.06,-52.66,-50.08
2022/06/19 00:58:30+0000,-36.22,-44.04,-32.52,-42.01,-52.59,-53.57
2022/06/19 00:59:22+0000,-35.67,-43.81,-32.74,-41.86,-52.29,-53.37
2022/06/19 01:00:15+0000,-36.40,-42.27,-32.39,-42.10,-53.45,-53.57
2022/06/19 01:01:15+0000,-36.71,-42.82,-32.76,-41.53,-52.12,-53.64
2022/06/19 01:02:07+0000,-35.88,-44.05,-31.99,-42.12,-52.36,-52.75
2022/06/19 01:02:59+0000,-36.60,-42.73,-32.48,-42.63,-52.99,-53.15
2022/06/19 01:03:51+0000,-35.82,-43.03,-32.81,-42.01,-52.93,-53.47
2022/06/19 01:04:43+0000,-36.37,-43.41,-32.62,-43.18,-52.39,-53.12
2022/06/19 01:05:35+0000,-35.60,-42.28,-32.35,-43.49,-51.71,-52.79
2022/06/19 01:06:27+0000,-35.33,-41.32,-32.21,-43.26,-51.54,-53.21
2022/06/19 01:07:19+0000,-36.61,-43.15,-33.09,-41.94,-52.21,-53.40
2022/06/19 01:08:11+0000,-35.85,-42.29,-32.79,-41.67,-53.34,-53.13
2022/06/19 01:09:03+0000,-36.94,-42.24,-32.42,-41.52,-52.02,-53.35
2022/06/19 01:09:56+0000,-35.54,-44.13,-32.50,-42.66,-52.95,-53.33
2022/06/19 01:10:48+0000,-35.47,-42.73,-32.66,-41.94,-52.69,-53.38
2022/06/19 01:11:48+0000,-36.34,-41.46,-32.49,-42.21,-51.89,-53.79
2022/06/19 01:12:40+0000,-36.34,-41.44,-32.52,-42.58,-52.71,-53.59
2022/06/19 01:13:32+0000,-35.71,-43.57,-32.61,-42.57,-52.54,-53.55
2022/06/19 01:14:24+0000,-36.18,-42.25,-31.92,-42.23,-51.93,-53.20
2022/06/19 01:15:16+0000,-36.38,-43.36,-32.21,-42.19,-52.90,-53.77
2022/06/19 01:16:08+0000,-35.69,-42.18,-32.55,-42.47,-51.77,-53.81
2022/06/19 01:17:00+0000,-36.31,-41.73,-33.09,-40.54,-52.81,-53.72
2022/06/19 01:17:52+0000,-35.51,-43.50,-32.59,-41.17,-52.75,-53.78
2022/06/19 01:18:44+0000,-36.34,-43.14,-33.02,-41.67,-52.58,-53.60
2022/06/19 01:19:36+0000,-36.71,-43.03,-32.42,-41.99,-52.57,-52.33
2022/06/19 01:20:28+0000,-36.68,-42.75,-32.95,-41.58,-52.32,-53.54
2022/06/19 01:21:34+0000,-36.39,-43.20,-33.16,-41.66,-52.13,-52.96
2022/06/19 01:22:26+0000,-35.96,-42.74,-32.97,-40.41,-53.08,-53.15
2022/06/19 01:23:18+0000,-36.74,-42.51,-32.76,-43.21,-51.94,-53.58
2022/06/19 01:24:10+0000,-36.61,-42.70,-32.55,-41.77,-52.17,-53.16
2022/06/19 01:25:02+0000,-36.12,-43.26,-32.26,-42.90,-52.83,-53.17
2022/06/19 01:25:54+0000,-36.04,-42.32,-32.00,-42.51,-52.36,-53.53
2022/06/19 01:26:46+0000,-36.73,-40.82,-32.53,-41.96,-52.94,-53.56
2022/06/19 01:27:38+0000,-35.39,-43.42,-32.75,-43.07,-52.95,-53.48
2022/06/19 01:28:30+0000,-36.71,-43.27,-33.04,-41.49,-52.19,-53.64
2022/06/19 01:29:22+0000,-35.92,-44.07,-32.39,-42.16,-52.80,-53.91
2022/06/19 01:30:15+0000,-36.01,-42.53,-32.35,-41.83,-52.52,-53.29
2022/06/19 01:31:16+0000,-36.35,-43.66,-32.46,-43.24,-52.08,-53.18
2022/06/19 01:32:08+0000,-36.19,-42.79,-32.50,-42.30,-52.48,-53.38
2022/06/19 01:33:00+0000,-36.42,-43.44,-32.31,-41.47,-52.19,-53.55
2022/06/19 01:33:52+0000,-36.12,-42.67,-32.38,-41.46,-52.25,-53.62
2022/06/19 01:34:44+0000,-36.35,-43.45,-31.72,-42.37,-52.02,-53.83
2022/06/19 01:35:36+0000,-36.96,-43.10,-32.56,-41.13,-52.51,-53.76
2022/06/19 01:36:28+0000,-36.28,-43.75,-32.52,-41.79,-52.18,-53.57
2022/06/19 01:37:20+0000,-35.27,-43.55,-32.64,-41.85,-52.51,-53.66
2022/06/19 01:38:12+0000,-36.10,-44.34,-32.24,-41.66,-52.27,-53.99
2022/06/19 01:39:04+0000,-35.96,-43.91,-32.44,-43.12,-48.73,-53.71
2022/06/19 01:39:56+0000,-36.10,-43.96,-31.73,-42.64,-52.75,-54.06
2022/06/19 01:40:48+0000,-36.00,-42.99,-32.78,-41.76,-53.02,-53.57
2022/06/19 01:41:46+0000,-36.14,-43.20,-32.26,-42.42,-51.98,-53.73
2022/06/19 01:42:38+0000,-35.95,-43.81,-32.26,-42.73,-51.38,-53.64
2022/06/19 01:43:30+0000,-35.91,-43.57,-32.00,-43.16,-52.86,-53.43
2022/06/19 01:44:23+0000,-35.70,-43.60,-32.42,-41.97,-52.20,-54.22
2022/06/19 01:45:15+0000,-35.24,-43.33,-32.33,-43.17,-52.35,-53.62
2022/06/19 01:46:07+0000,-36.36,-42.74,-32.15,-42.69,-51.39,-53.87
2022/06/19 01:46:59+0000,-37.26,-39.56,-32.32,-42.78,-51.39,-53.10
2022/06/19 01:47:51+0000,-35.61,-42.41,-32.10,-43.34,-52.48,-54.11
2022/06/19 01:48:43+0000,-36.55,-42.82,-32.32,-44.06,-51.43,-53.68
2022/06/19 01:49:35+0000,-35.68,-42.99,-32.08,-42.32,-51.74,-53.19
2022/06/19 01:50:27+0000,-35.80,-43.68,-32.74,-42.01,-52.66,-54.37
2022/06/19 01:51:25+0000,-36.13,-42.59,-32.22,-42.51,-52.49,-53.67
2022/06/19 01:52:17+0000,-35.77,-44.06,-32.09,-43.07,-51.88,-53.74
2022/06/19 01:53:09+0000,-36.12,-43.87,-32.00,-42.35,-51.68,-53.68
2022/06/19 01:54:01+0000,-36.61,-42.66,-32.27,-41.92,-52.59,-53.32
2022/06/19 01:54:53+0000,-35.78,-42.06,-32.02,-41.82,-52.76,-53.79
2022/06/19 01:55:45+0000,-36.69,-41.91,-32.21,-43.39,-52.76,-53.43
2022/06/19 01:56:37+0000,-35.73,-43.53,-31.78,-42.94,-51.81,-53.09
2022/06/19 01:57:29+0000,-36.34,-42.60,-31.80,-42.41,-52.25,-53.17
2022/06/19 01:58:21+0000,-36.05,-45.58,-32.78,-42.61,-52.46,-53.33
2022/06/19 01:59:13+0000,-36.49,-45.32,-32.46,-41.45,-52.50,-53.41
2022/06/19 02:00:06+0000,-35.52,-44.34,-32.96,-43.05,-52.35,-53.48
2022/06/19 02:01:07+0000,-36.34,-46.07,-32.31,-43.21,-52.19,-53.51
2022/06/19 02:01:59+0000,-36.65,-44.71,-32.12,-42.67,-52.83,-53.97
2022/06/19 02:02:51+0000,-36.70,-47.64,-32.43,-41.94,-52.39,-53.58
2022/06/19 02:03:43+0000,-36.35,-44.17,-32.63,-43.70,-53.11,-53.33
2022/06/19 02:04:35+0000,-35.99,-45.90,-32.26,-42.95,-51.86,-53.14
2022/06/19 02:05:27+0000,-36.09,-46.64,-32.07,-42.31,-51.33,-53.37
2022/06/19 02:06:19+0000,-36.29,-46.45,-32.21,-44.75,-51.97,-53.90
2022/06/19 02:07:11+0000,-35.59,-46.96,-29.59,-43.25,-51.48,-53.00
2022/06/19 02:08:03+0000,-35.01,-46.74,-32.35,-42.13,-51.58,-53.56
2022/06/19 02:08:55+0000,-35.37,-40.64,-32.71,-42.61,-51.64,-52.75
2022/06/19 02:09:47+0000,-36.60,-46.14,-32.13,-43.32,-52.15,-53.30
2022/06/19 02:10:39+0000,-36.08,-46.74,-31.78,-42.54,-52.36,-53.27
2022/06/19 02:11:38+0000,-36.41,-27.51,-31.16,-43.15,-51.85,-53.33
2022/06/19 02:12:30+0000,-35.15,-46.51,-31.93,-42.64,-52.33,-53.12
2022/06/19 02:13:22+0000,-36.13,-46.42,-31.69,-42.02,-52.67,-53.63
2022/06/19 02:14:14+0000,-35.13,-43.44,-31.38,-42.83,-51.93,-52.81
2022/06/19 02:15:06+0000,-36.06,-43.00,-27.03,-43.29,-51.32,-53.28
2022/06/19 02:15:58+0000,-35.80,-46.38,-31.18,-42.28,-51.29,-52.93
2022/06/19 02:16:50+0000,-36.07,-43.43,-31.60,-42.93,-52.29,-53.82
2022/06/19 02:17:42+0000,-35.74,-44.86,-31.20,-43.64,-51.97,-53.06
2022/06/19 02:18:34+0000,-35.92,-46.11,-31.76,-44.18,-52.65,-53.49
2022/06/19 02:19:26+0000,-36.00,-44.81,-31.57,-43.21,-51.55,-53.04
2022/06/19 02:20:18+0000,-35.01,-45.77,-30.88,-44.15,-51.99,-53.44
2022/06/19 02:21:17+0000,-35.83,-44.63,-31.57,-41.91,-51.79,-53.41
2022/06/19 02:22:09+0000,-35.81,-42.85,-31.50,-43.65,-52.03,-52.68
2022/06/19 02:23:01+0000,-36.13,-42.57,-31.20,-42.73,-51.66,-53.40
2022/06/19 02:23:53+0000,-36.15,-34.38,-31.49,-41.86,-50.80,-49.45
2022/06/19 02:24:45+0000,-36.17,-42.03,-32.12,-42.25,-51.57,-53.80
2022/06/19 02:25:37+0000,-35.90,-42.45,-32.37,-42.48,-52.03,-53.02
2022/06/19 02:26:29+0000,-35.73,-41.52,-32.86,-41.20,-51.78,-53.87
2022/06/19 02:27:21+0000,-35.42,-43.39,-31.42,-42.20,-52.03,-53.20
2022/06/19 02:28:13+0000,-35.07,-44.79,-31.18,-43.23,-52.32,-53.46
2022/06/19 02:29:05+0000,-36.34,-43.50,-31.21,-43.42,-52.07,-52.99
2022/06/19 02:29:57+0000,-35.83,-43.04,-32.06,-41.61,-52.11,-53.76
2022/06/19 02:30:49+0000,-35.34,-42.44,-31.79,-43.81,-51.97,-53.06
2022/06/19 02:31:48+0000,-35.73,-42.86,-30.96,-42.71,-51.90,-53.31
2022/06/19 02:32:40+0000,-35.83,-42.11,-32.00,-41.39,-51.80,-53.37
2022/06/19 02:33:32+0000,-35.83,-43.23,-31.91,-41.89,-51.58,-52.77
2022/06/19 02:34:24+0000,-36.20,-43.58,-31.77,-42.39,-52.35,-53.12
2022/06/19 02:35:16+0000,-36.16,-42.53,-32.36,-41.72,-51.52,-53.31
2022/06/19 02:36:08+0000,-35.27,-43.62,-31.70,-41.12,-51.90,-53.02
2022/06/19 02:37:00+0000,-36.03,-42.51,-31.44,-40.88,-51.62,-53.56
2022/06/19 02:37:52+0000,-35.12,-42.60,-31.81,-41.82,-51.65,-53.63
2022/06/19 02:38:44+0000,-34.98,-43.18,-31.79,-41.94,-51.69,-53.24
2022/06/19 02:39:36+0000,-35.11,-44.10,-31.80,-41.39,-51.71,-53.39
2022/06/19 02:40:29+0000,-35.79,-43.37,-32.11,-40.65,-52.09,-53.17
2022/06/19 02:41:33+0000,-35.64,-42.46,-32.11,-43.02,-51.83,-53.23
2022/06/19 02:42:25+0000,-35.59,-41.94,-31.37,-42.05,-51.95,-53.65
2022/06/19 02:43:17+0000,-35.35,-42.50,-31.42,-42.25,-52.04,-53.04
2022/06/19 02:44:10+0000,-35.02,-42.28,-31.76,-42.57,-52.56,-52.76
2022/06/19 02:45:02+0000,-35.36,-42.87,-31.62,-43.42,-52.12,-54.00
2022/06/19 02:45:54+0000,-35.32,-42.69,-31.21,-42.95,-51.52,-53.43
2022/06/19 02:46:46+0000,-34.79,-42.52,-31.36,-43.55,-52.21,-54.07
2022/06/19 02:47:38+0000,-35.07,-43.73,-31.38,-42.63,-52.70,-53.45
2022/06/19 02:48:30+0000,-35.90,-42.38,-31.04,-43.02,-51.69,-53.05
2022/06/19 02:49:22+0000,-35.95,-44.68,-30.81,-42.45,-52.07,-52.59
2022/06/19 02:50:14+0000,-35.85,-42.65,-30.97,-42.61,-52.04,-53.30
2022/06/19 02:51:14+0000,-35.78,-43.52,-32.05,-40.66,-52.48,-53.12
2022/06/19 02:52:06+0000,-35.59,-41.99,-31.29,-42.34,-51.98,-53.06
2022/06/19 02:52:58+0000,-35.78,-43.57,-31.47,-43.64,-52.07,-53.26
2022/06/19 02:53:50+0000,-34.92,-41.66,-30.99,-42.70,-51.86,-53.33
2022/06/19 02:54:43+0000,-36.06,-43.10,-31.79,-42.67,-52.10,-52.09
2022/06/19 02:55:35+0000,-35.90,-42.43,-31.13,-43.36,-52.51,-52.79
2022/06/19 02:56:27+0000,-36.36,-41.99,-31.36,-41.68,-51.67,-53.42
2022/06/19 02:57:19+0000,-35.42,-41.63,-31.61,-43.49,-51.86,-53.66
2022/06/19 02:58:11+0000,-34.88,-41.83,-31.81,-43.32,-51.78,-52.88
2022/06/19 02:59:03+0000,-35.06,-26.89,-31.38,-42.19,-52.46,-52.83
2022/06/19 02:59:55+0000,-35.43,-42.25,-31.09,-42.73,-52.25,-52.21
2022/06/19 03:00:47+0000,-35.34,-41.99,-31.76,-42.67,-51.66,-52.74
2022/06/19 03:01:48+0000,-36.09,-41.36,-31.40,-43.00,-51.90,-52.89
2022/06/19 03:02:40+0000,-35.48,-42.40,-31.06,-42.99,-52.43,-53.24
2022/06/19 03:03:32+0000,-36.69,-42.58,-31.71,-40.30,-52.32,-52.86
2022/06/19 03:04:24+0000,-35.92,-42.64,-30.89,-42.36,-52.44,-53.63
2022/06/19 03:05:16+0000,-35.74,-41.88,-31.31,-43.33,-51.78,-53.39
2022/06/19 03:06:08+0000,-35.20,-42.21,-31.12,-41.54,-52.30,-52.82
2022/06/19 03:07:00+0000,-35.79,-42.85,-31.00,-42.79,-51.79,-52.30
2022/06/19 03:07:52+0000,-35.76,-42.30,-31.86,-41.83,-51.98,-53.09
2022/06/19 03:08:44+0000,-36.03,-42.86,-31.78,-40.84,-51.46,-51.02
2022/06/19 03:09:36+0000,-35.51,-41.47,-31.55,-43.14,-51.65,-53.00
2022/06/19 03:10:28+0000,-36.09,-41.10,-31.99,-41.90,-52.01,-53.67
2022/06/19 03:11:29+0000,-35.86,-41.50,-31.46,-41.33,-51.62,-52.90
2022/06/19 03:12:21+0000,-36.02,-43.56,-31.24,-43.15,-51.90,-52.78
2022/06/19 03:13:13+0000,-36.48,-41.97,-31.54,-40.58,-51.93,-52.69
2022/06/19 03:14:05+0000,-35.70,-43.67,-27.66,-43.26,-52.14,-53.26
2022/06/19 03:14:57+0000,-36.20,-44.13,-30.94,-42.91,-51.70,-53.60
2022/06/19 03:15:49+0000,-36.05,-44.38,-31.59,-43.17,-51.63,-52.72
2022/06/19 03:16:41+0000,-36.67,-44.68,-31.27,-43.34,-51.83,-53.57
2022/06/19 03:17:33+0000,-36.10,-44.13,-31.02,-42.61,-52.17,-52.99
2022/06/19 03:18:25+0000,-35.61,-37.15,-30.77,-41.03,-52.18,-53.27
2022/06/19 03:19:17+0000,-36.15,-35.28,-31.52,-40.76,-51.59,-53.50
2022/06/19 03:20:10+0000,-36.35,-43.14,-31.66,-41.48,-52.95,-53.34
2022/06/19 03:21:09+0000,-35.04,-43.68,-31.77,-40.85,-52.19,-53.01
2022/06/19 03:22:01+0000,-35.50,-38.15,-31.38,-41.21,-51.99,-53.66
2022/06/19 03:22:54+0000,-36.18,-44.39,-31.41,-42.51,-52.15,-53.47
2022/06/19 03:23:46+0000,-35.55,-44.93,-31.66,-40.59,-52.21,-51.60
2022/06/19 03:24:38+0000,-35.49,-43.27,-31.51,-40.55,-52.94,-53.32
2022/06/19 03:25:30+0000,-34.93,-44.99,-31.38,-42.53,-53.02,-53.03
2022/06/19 03:26:22+0000,-35.41,-44.81,-31.22,-40.79,-52.14,-53.50
2022/06/19 03:27:14+0000,-35.39,-43.50,-31.84,-40.46,-52.31,-53.54
2022/06/19 03:28:06+0000,-36.27,-44.19,-31.48,-15.64,-52.18,-53.09
2022/06/19 03:28:58+0000,-35.78,-44.47,-31.45,-41.66,-52.42,-53.39
2022/06/19 03:29:50+0000,-36.12,-43.62,-31.09,-43.27,-52.08,-53.30
2022/06/19 03:30:42+0000,-35.95,-44.22,-31.71,-42.63,-51.63,-53.16
2022/06/19 03:31:45+0000,-34.88,-44.20,-31.60,-42.67,-52.33,-53.62
2022/06/19 03:32:37+0000,-35.19,-44.10,-31.85,-42.67,-52.28,-53.32
2022/06/19 03:33:29+0000,-34.95,-44.04,-31.77,-41.60,-52.41,-54.26
2022/06/19 03:34:21+0000,-35.71,-44.81,-31.87,-37.16,-52.66,-53.39
2022/06/19 03:35:13+0000,-36.26,-44.33,-32.02,-41.58,-52.25,-53.05
2022/06/19 03:36:05+0000,-35.90,-44.25,-31.74,-43.46,-52.48,-53.59
2022/06/19 03:36:57+0000,-35.12,-43.78,-31.67,-41.06,-52.40,-53.52
2022/06/19 03:37:49+0000,-35.73,-44.09,-31.61,-43.75,-51.85,-53.39
2022/06/19 03:38:41+0000,-35.86,-44.64,-31.55,-39.63,-53.01,-53.53
2022/06/19 03:39:33+0000,-36.50,-43.64,-31.97,-40.87,-51.79,-53.50
2022/06/19 03:40:25+0000,-34.99,-43.73,-31.88,-41.02,-52.25,-52.86
2022/06/19 03:41:25+0000,-35.44,-44.90,-31.57,-41.78,-52.13,-53.60
2022/06/19 03:42:17+0000,-35.31,-45.22,-32.00,-40.61,-52.38,-53.22
2022/06/19 03:43:09+0000,-35.41,-43.66,-31.55,-41.25,-52.52,-53.26
2022/06/19 03:44:01+0000,-36.31,-44.57,-31.43,-41.90,-52.30,-53.33
2022/06/19 03:44:54+0000,-35.29,-44.73,-31.57,-42.38,-52.31,-53.10
2022/06/19 03:45:46+0000,-35.10,-45.51,-31.29,-43.23,-52.22,-53.47
2022/06/19 03:46:38+0000,-35.63,-44.14,-31.63,-42.82,-52.38,-53.69
2022/06/19 03:47:30+0000,-35.16,-41.26,-31.67,-42.91,-53.04,-52.96
2022/06/19 03:48:22+0000,-36.46,-43.07,-31.15,-43.40,-52.30,-52.82
2022/06/19 03:49:14+0000,-35.98,-43.04,-31.68,-42.40,-52.37,-52.46
2022/06/19 03:50:06+0000,-35.74,-40.55,-31.77,-43.10,-52.43,-52.95
2022/06/19 03:51:06+0000,-36.36,-42.87,-31.47,-41.42,-51.92,-53.00
2022/06/19 03:51:58+0000,-35.02,-40.68,-32.28,-42.10,-51.74,-52.65
2022/06/19 03:52:51+0000,-36.38,-44.00,-31.62,-43.37,-51.76,-53.34
2022/06/19 03:53:43+0000,-35.92,-42.58,-32.21,-42.19,-52.29,-51.69
2022/06/19 03:54:35+0000,-35.62,-41.03,-32.18,-42.56,-52.05,-52.99
2022/06/19 03:55:27+0000,-35.22,-42.59,-31.76,-42.54,-51.98,-52.76
2022/06/19 03:56:19+0000,-34.66,-41.19,-32.29,-42.58,-52.44,-53.18
2022/06/19 03:57:11+0000,-35.11,-42.36,-31.91,-42.30,-52.45,-53.61
2022/06/19 03:58:03+0000,-35.78,-42.03,-31.73,-41.30,-52.34,-52.73
2022/06/19 03:58:55+0000,-36.00,-42.22,-32.47,-40.69,-51.97,-53.23
2022/06/19 03:59:47+0000,-35.31,-39.85,-32.23,-40.53,-52.32,-52.71
2022/06/19 04:00:39+0000,-35.49,-40.66,-32.53,-42.62,-51.60,-52.90
2022/06/19 04:01:38+0000,-35.56,-40.54,-32.76,-40.62,-51.45,-52.83
2022/06/19 04:02:31+0000,-35.74,-42.68,-33.18,-41.14,-51.84,-52.98
2022/06/19 04:03:23+0000,-35.32,-41.84,-33.38,-41.11,-52.11,-53.26
2022/06/19 04:04:15+0000,-35.98,-41.49,-33.13,-41.96,-51.62,-53.07
2022/06/19 04:05:07+0000,-35.21,-41.78,-32.99,-42.04,-51.96,-53.32
2022/06/19 04:05:59+0000,-35.27,-43.31,-32.94,-40.61,-52.30,-53.27
2022/06/19 04:06:51+0000,-35.59,-43.14,-33.26,-40.94,-52.12,-52.73
2022/06/19 04:07:43+0000,-36.23,-42.56,-33.09,-40.76,-52.05,-53.08
2022/06/19 04:08:35+0000,-35.77,-42.45,-32.33,-42.51,-52.03,-52.56
2022/06/19 04:09:27+0000,-36.27,-42.85,-32.97,-40.64,-51.64,-53.06
2022/06/19 04:10:19+0000,-35.21,-41.38,-32.43,-43.99,-51.97,-52.73
2022/06/19 04:11:17+0000,-35.63,-42.25,-33.28,-42.48,-51.40,-53.15
2022/06/19 04:12:09+0000,-35.21,-41.70,-33.14,-41.12,-51.98,-53.10
2022/06/19 04:13:01+0000,-35.52,-41.77,-31.97,-41.34,-51.54,-52.54
2022/06/19 04:13:53+0000,-35.50,-43.04,-33.24,-41.42,-52.57,-52.50
2022/06/19 04:14:45+0000,-36.04,-42.91,-32.57,-40.84,-51.46,-53.22
2022/06/19 04:15:37+0000,-34.35,-42.57,-32.52,-42.10,-52.02,-53.21
2022/06/19 04:16:29+0000,-34.76,-40.88,-33.67,-41.35,-52.47,-52.44
2022/06/19 04:17:21+0000,-34.88,-43.43,-32.42,-41.98,-52.53,-53.13
2022/06/19 04:18:13+0000,-35.70,-42.65,-32.27,-42.45,-52.20,-52.75
2022/06/19 04:19:06+0000,-35.72,-42.80,-33.02,-41.95,-51.25,-52.99
2022/06/19 04:19:58+0000,-34.81,-45.40,-32.61,-41.59,-51.78,-52.86
2022/06/19 04:20:50+0000,-35.41,-44.18,-33.02,-42.94,-52.87,-52.27
2022/06/19 04:21:48+0000,-35.58,-44.79,-32.79,-42.39,-52.52,-53.04
2022/06/19 04:22:40+0000,-35.32,-45.65,-33.38,-39.81,-51.69,-53.09
2022/06/19 04:23:32+0000,-35.96,-44.94,-32.86,-40.39,-51.92,-53.55
2022/06/19 04:24:24+0000,-35.58,-44.04,-33.35,-40.80,-52.12,-52.27
2022/06/19 04:25:16+0000,-34.96,-42.53,-33.82,-39.53,-51.78,-52.72
2022/06/19 04:26:08+0000,-35.35,-43.26,-33.39,-39.97,-51.91,-52.75
2022/06/19 04:27:00+0000,-35.46,-42.44,-33.56,-41.28,-51.70,-52.41
2022/06/19 04:27:52+0000,-34.71,-42.67,-33.12,-40.67,-51.83,-52.77
2022/06/19 04:28:44+0000,-36.17,-41.59,-32.95,-41.59,-52.42,-52.56
2022/06/19 04:29:36+0000,-35.21,-41.63,-33.20,-40.75,-52.08,-53.01
2022/06/19 04:30:28+0000,-36.00,-42.04,-33.75,-41.62,-51.20,-52.94
2022/06/19 04:31:27+0000,-36.23,-41.98,-33.54,-41.44,-51.26,-52.62
2022/06/19 04:32:19+0000,-35.89,-41.64,-32.80,-44.44,-52.55,-52.15
2022/06/19 04:33:11+0000,-36.19,-43.77,-32.57,-43.25,-52.14,-52.65
2022/06/19 04:34:03+0000,-36.31,-41.65,-32.68,-40.79,-50.78,-52.83
2022/06/19 04:34:55+0000,-35.97,-41.86,-32.92,-40.34,-51.94,-52.45
2022/06/19 04:35:47+0000,-35.74,-40.98,-33.06,-40.34,-52.24,-52.77
2022/06/19 04:36:39+0000,-35.46,-42.45,-32.54,-40.80,-52.00,-52.64
2022/06/19 04:37:31+0000,-36.18,-43.01,-32.83,-40.93,-52.11,-52.67
2022/06/19 04:38:23+0000,-35.20,-42.15,-33.09,-40.62,-51.76,-52.63
2022/06/19 04:39:15+0000,-36.11,-42.30,-32.60,-38.90,-51.89,-53.02
2022/06/19 04:40:07+0000,-34.63,-41.12,-33.87,-40.00,-52.05,-52.65
2022/06/19 04:41:05+0000,-33.60,-42.86,-33.64,-41.70,-51.21,-52.83
2022/06/19 04:41:57+0000,-35.53,-42.22,-33.08,-42.05,-51.92,-52.44
2022/06/19 04:42:49+0000,-34.90,-40.60,-33.43,-41.14,-51.65,-52.79
2022/06/19 04:43:41+0000,-35.25,-44.84,-33.85,-43.32,-51.58,-52.95
2022/06/19 04:44:33+0000,-34.51,-45.19,-34.06,-40.70,-52.44,-52.14
2022/06/19 04:45:25+0000,-33.94,-43.76,-32.40,-42.22,-52.34,-52.43